| time (UTC) | temp F | wind direction | speed knots | gust knots | rain 1hr in | rain 24hr in | rain mn in | humidity % | barometer mb |
| 20260507104016 | 55 | 45 | 7.8 | 15.6 | 0.00 | 0.01 | 0.00 | 82 | 1019.0 |
| 20260507103016 | 55 | 45 | 7.0 | 13.0 | 0.00 | 0.01 | 0.00 | 81 | 1019.0 |
| 20260507102016 | 55 | 45 | 7.0 | 11.3 | 0.00 | 0.01 | 0.00 | 81 | 1019.1 |
| 20260507101016 | 56 | 45 | 5.2 | 9.6 | 0.00 | 0.01 | 0.00 | 80 | 1019.2 |
| 20260507100016 | 56 | 45 | 7.0 | 9.6 | 0.00 | 0.01 | 0.00 | 80 | 1019.5 |
| 20260507095016 | 56 | 45 | 5.2 | 9.6 | 0.00 | 0.01 | 0.00 | 79 | 1019.3 |
| 20260507094016 | 56 | 45 | 4.3 | 7.8 | 0.00 | 0.01 | 0.00 | 79 | 1019.4 |
| 20260507093016 | 56 | 68 | 6.1 | 10.4 | 0.00 | 0.01 | 0.00 | 79 | 1019.1 |
| 20260507092016 | 56 | 45 | 7.0 | 13.0 | 0.00 | 0.01 | 0.00 | 78 | 1018.8 |
| 20260507091016 | 56 | 45 | 5.2 | 7.8 | 0.00 | 0.01 | 0.00 | 79 | 1018.7 |
| 20260507090016 | 57 | 45 | 5.2 | 13.9 | 0.00 | 0.01 | 0.00 | 78 | 1018.8 |
| 20260507085016 | 57 | 45 | 4.3 | 8.7 | 0.00 | 0.01 | 0.00 | 78 | 1018.6 |
| 20260507084016 | 57 | 68 | 7.0 | 10.4 | 0.00 | 0.01 | 0.00 | 78 | 1018.5 |
| 20260507083016 | 57 | 45 | 4.3 | 7.8 | 0.00 | 0.01 | 0.00 | 78 | 1018.4 |
| 20260507082016 | 57 | 45 | 4.3 | 8.7 | 0.00 | 0.01 | 0.00 | 78 | 1018.1 |
| 20260507081016 | 57 | 45 | 4.3 | 8.7 | 0.00 | 0.01 | 0.00 | 78 | 1018.1 |
| 20260507080016 | 58 | 45 | 4.3 | 7.8 | 0.00 | 0.01 | 0.00 | 78 | 1018.0 |
| 20260507075020 | 58 | 45 | 2.6 | 4.3 | 0.00 | 0.01 | 0.00 | 78 | 1017.7 |
| 20260507074020 | 58 | 45 | 3.5 | 7.8 | 0.00 | 0.01 | 0.00 | 78 | 1017.7 |
| 20260507073020 | 58 | 45 | 5.2 | 11.3 | 0.00 | 0.01 | 0.00 | 77 | 1017.4 |
| 20260507072016 | 58 | 45 | 3.5 | 5.2 | 0.00 | 0.01 | 0.00 | 78 | 1017.2 |
| 20260507071016 | 58 | 45 | 4.3 | 7.8 | 0.00 | 0.01 | 0.00 | 78 | 1016.8 |
| 20260507070016 | 58 | 45 | 4.3 | 7.8 | 0.00 | 0.01 | 0.00 | 78 | 1016.8 |
| 20260507065016 | 59 | 68 | 6.1 | 11.3 | 0.00 | 0.01 | 0.00 | 79 | 1016.9 |
| 20260507064016 | 59 | 68 | 6.1 | 10.4 | 0.00 | 0.01 | 0.00 | 80 | 1016.5 |
| 20260507063016 | 58 | 68 | 6.1 | 9.6 | 0.00 | 0.01 | 0.00 | 81 | 1016.4 |
| 20260507062016 | 58 | 68 | 6.1 | 9.6 | 0.00 | 0.01 | 0.00 | 81 | 1016.2 |
| 20260507061016 | 58 | 68 | 7.0 | 9.6 | 0.00 | 0.01 | 0.00 | 80 | 1016.2 |
| 20260507060016 | 58 | 68 | 5.2 | 8.7 | 0.00 | 0.01 | 0.00 | 79 | 1016.1 |
| 20260507055016 | 59 | 68 | 4.3 | 7.8 | 0.00 | 0.01 | 0.00 | 79 | 1016.2 |
| 20260507054016 | 59 | 68 | 7.0 | 10.4 | 0.00 | 0.01 | 0.00 | 79 | 1016.2 |
| 20260507053016 | 59 | 68 | 6.1 | 9.6 | 0.00 | 0.01 | 0.00 | 78 | 1016.2 |
| 20260507052016 | 59 | 68 | 6.1 | 11.3 | 0.00 | 0.01 | 0.00 | 78 | 1016.0 |
| 20260507051016 | 59 | 68 | 6.1 | 11.3 | 0.00 | 0.01 | 0.00 | 77 | 1016.0 |
| 20260507050016 | 59 | 45 | 6.1 | 12.2 | 0.00 | 0.01 | 0.01 | 78 | 1015.9 |
| 20260507045016 | 59 | 68 | 6.1 | 9.6 | 0.00 | 0.01 | 0.01 | 80 | 1015.8 |
| 20260507044016 | 60 | 68 | 5.2 | 8.7 | 0.00 | 0.01 | 0.01 | 82 | 1015.7 |
| 20260507043016 | 60 | 45 | 3.5 | 7.0 | 0.00 | 0.01 | 0.01 | 82 | 1015.6 |
| 20260507042016 | 60 | 68 | 5.2 | 7.8 | 0.00 | 0.01 | 0.01 | 81 | 1015.1 |
| 20260507041016 | 60 | 68 | 4.3 | 7.0 | 0.00 | 0.01 | 0.01 | 81 | 1015.2 |
| 20260507040016 | 60 | 68 | 3.5 | 6.1 | 0.00 | 0.01 | 0.01 | 80 | 1015.0 |
| 20260507035016 | 60 | 68 | 3.5 | 4.3 | 0.00 | 0.01 | 0.01 | 79 | 1014.7 |
| 20260507034016 | 61 | 68 | 3.5 | 5.2 | 0.00 | 0.01 | 0.01 | 79 | 1014.7 |
| 20260507033016 | 61 | 68 | 3.5 | 4.3 | 0.00 | 0.01 | 0.01 | 78 | 1014.5 |
| 20260507032016 | 61 | 68 | 2.6 | 3.5 | 0.00 | 0.01 | 0.01 | 77 | 1014.3 |
| 20260507031016 | 61 | 68 | 1.7 | 2.6 | 0.00 | 0.01 | 0.01 | 76 | 1014.1 |
| 20260507030016 | 62 | 90 | 1.7 | 2.6 | 0.00 | 0.01 | 0.01 | 75 | 1013.9 |
| 20260507025016 | 63 | 90 | 1.7 | 2.6 | 0.00 | 0.01 | 0.01 | 74 | 1014.0 |
| 20260507024016 | 63 | 90 | 1.7 | 2.6 | 0.00 | 0.01 | 0.01 | 73 | 1013.7 |
| 20260507023016 | 63 | 90 | 1.7 | 3.5 | 0.00 | 0.01 | 0.01 | 72 | 1013.5 |
| 20260507022016 | 64 | 90 | 2.6 | 2.6 | 0.00 | 0.01 | 0.01 | 71 | 1013.3 |
| 20260507021016 | 65 | 90 | 1.7 | 2.6 | 0.00 | 0.01 | 0.01 | 69 | 1013.3 |
| 20260507020016 | 66 | 90 | 2.6 | 6.1 | 0.00 | 0.01 | 0.01 | 67 | 1013.1 |
| 20260507015016 | 66 | 90 | 2.6 | 5.2 | 0.00 | 0.01 | 0.01 | 66 | 1013.1 |
| 20260507014016 | 67 | 90 | 3.5 | 5.2 | 0.00 | 0.01 | 0.01 | 65 | 1013.2 |
| 20260507013016 | 68 | 68 | 6.1 | 9.6 | 0.00 | 0.01 | 0.01 | 61 | 1013.0 |
| 20260507012016 | 68 | 68 | 6.1 | 8.7 | 0.00 | 0.01 | 0.01 | 60 | 1013.0 |
| 20260507011016 | 69 | 68 | 7.0 | 10.4 | 0.00 | 0.01 | 0.01 | 60 | 1012.9 |
| 20260507010016 | 69 | 68 | 7.0 | 12.2 | 0.00 | 0.01 | 0.01 | 59 | 1012.7 |
| 20260507005016 | 70 | 68 | 7.8 | 12.2 | 0.00 | 0.01 | 0.01 | 58 | 1012.7 |
| 20260507004016 | 70 | 68 | 7.0 | 10.4 | 0.00 | 0.01 | 0.01 | 58 | 1012.8 |
| 20260507003016 | 70 | 68 | 7.8 | 11.3 | 0.00 | 0.01 | 0.01 | 58 | 1012.7 |
| 20260507002016 | 70 | 68 | 7.8 | 10.4 | 0.00 | 0.01 | 0.01 | 57 | 1012.6 |
| 20260507001016 | 70 | 68 | 9.6 | 12.2 | 0.00 | 0.01 | 0.01 | 56 | 1012.5 |
| 20260507000016 | 71 | 68 | 8.7 | 12.2 | 0.00 | 0.01 | 0.01 | 56 | 1012.6 |
| 20260506235016 | 71 | 68 | 7.0 | 9.6 | 0.00 | 0.01 | 0.01 | 56 | 1012.7 |
| 20260506234016 | 71 | 68 | 7.0 | 10.4 | 0.00 | 0.01 | 0.01 | 56 | 1012.6 |
| 20260506233016 | 71 | 45 | 3.5 | 7.0 | 0.00 | 0.01 | 0.01 | 57 | 1012.4 |
| 20260506232016 | 72 | 45 | 2.6 | 7.8 | 0.00 | 0.01 | 0.01 | 57 | 1012.7 |
| 20260506231016 | 72 | 68 | 4.3 | 8.7 | 0.00 | 0.01 | 0.01 | 56 | 1012.6 |
| 20260506230016 | 72 | 68 | 2.6 | 7.8 | 0.00 | 0.01 | 0.01 | 56 | 1012.5 |
| 20260506225016 | 72 | 68 | 3.5 | 10.4 | 0.00 | 0.01 | 0.01 | 56 | 1012.3 |
| 20260506224016 | 72 | 45 | 2.6 | 4.3 | 0.00 | 0.01 | 0.01 | 54 | 1012.3 |
| 20260506223016 | 72 | 68 | 3.5 | 8.7 | 0.00 | 0.01 | 0.01 | 56 | 1012.2 |
| 20260506222016 | 72 | 45 | 2.6 | 4.3 | 0.00 | 0.01 | 0.01 | 54 | 1012.3 |
| 20260506221016 | 72 | 23 | 1.7 | 5.2 | 0.00 | 0.01 | 0.01 | 55 | 1012.3 |
| 20260506220016 | 73 | 68 | 4.3 | 7.8 | 0.00 | 0.01 | 0.01 | 56 | 1012.5 |
| 20260506215016 | 71 | 68 | 2.6 | 7.0 | 0.00 | 0.01 | 0.01 | 59 | 1012.4 |
| 20260506214016 | 70 | 45 | 3.5 | 8.7 | 0.00 | 0.01 | 0.01 | 56 | 1012.4 |
| 20260506213016 | 70 | 68 | 4.3 | 11.3 | 0.00 | 0.01 | 0.01 | 57 | 1012.6 |
| 20260506212016 | 71 | 68 | 3.5 | 7.0 | 0.00 | 0.01 | 0.01 | 57 | 1012.7 |
| 20260506211016 | 70 | 68 | 3.5 | 7.8 | 0.00 | 0.01 | 0.01 | 59 | 1012.8 |
| 20260506210016 | 69 | 68 | 3.5 | 7.8 | 0.00 | 0.01 | 0.01 | 59 | 1012.5 |
| 20260506205016 | 69 | 68 | 3.5 | 8.7 | 0.00 | 0.01 | 0.01 | 61 | 1012.8 |
| 20260506204016 | 68 | 45 | 3.5 | 8.7 | 0.00 | 0.01 | 0.01 | 61 | 1012.9 |
| 20260506203016 | 68 | 45 | 3.5 | 5.2 | 0.00 | 0.01 | 0.01 | 65 | 1013.0 |
| 20260506202016 | 67 | 90 | 2.6 | 7.8 | 0.00 | 0.01 | 0.01 | 65 | 1013.4 |
| 20260506201016 | 66 | 68 | 5.2 | 9.6 | 0.00 | 0.01 | 0.01 | 67 | 1013.5 |
| 20260506200016 | 65 | 68 | 4.3 | 8.7 | 0.00 | 0.01 | 0.01 | 67 | 1013.5 |
| 20260506195016 | 66 | 90 | 3.5 | 7.0 | 0.00 | 0.01 | 0.01 | 67 | 1013.7 |
| 20260506194016 | 63 | 68 | 5.2 | 9.6 | 0.00 | 0.01 | 0.01 | 71 | 1013.8 |
| 20260506193016 | 63 | 68 | 5.2 | 9.6 | 0.00 | 0.01 | 0.01 | 71 | 1013.7 |
| 20260506192020 | 62 | 68 | 5.2 | 8.7 | 0.00 | 0.01 | 0.01 | 73 | 1013.9 |
| 20260506191020 | 62 | 45 | 3.5 | 7.0 | 0.00 | 0.01 | 0.01 | 71 | 1014.0 |
| 20260506190020 | 61 | 68 | 5.2 | 10.4 | 0.00 | 0.01 | 0.01 | 73 | 1013.9 |
| 20260506185016 | 61 | 68 | 5.2 | 7.8 | 0.00 | 0.01 | 0.01 | 75 | 1014.1 |
| 20260506184016 | 61 | 68 | 6.1 | 8.7 | 0.00 | 0.01 | 0.01 | 75 | 1014.0 |
| 20260506183016 | 61 | 68 | 7.8 | 11.3 | 0.00 | 0.01 | 0.01 | 73 | 1014.3 |
| 20260506182016 | 60 | 45 | 4.3 | 8.7 | 0.00 | 0.01 | 0.01 | 73 | 1014.3 |
| 20260506181016 | 60 | 68 | 8.7 | 11.3 | 0.00 | 0.01 | 0.01 | 74 | 1014.4 |
| 20260506180017 | 60 | 68 | 7.0 | 11.3 | 0.00 | 0.01 | 0.01 | 74 | 1014.3 |
| 20260506175016 | 61 | 68 | 8.7 | 10.4 | 0.00 | 0.01 | 0.01 | 73 | 1014.6 |
| 20260506174016 | 60 | 68 | 6.1 | 11.3 | 0.00 | 0.01 | 0.01 | 73 | 1014.6 |
| 20260506173016 | 60 | 68 | 6.1 | 11.3 | 0.00 | 0.01 | 0.01 | 73 | 1014.8 |
| 20260506172016 | 60 | 45 | 6.1 | 11.3 | 0.00 | 0.01 | 0.01 | 74 | 1014.8 |
| 20260506171017 | 60 | 68 | 6.1 | 10.4 | 0.00 | 0.01 | 0.01 | 74 | 1014.6 |
| 20260506170016 | 60 | 68 | 4.3 | 10.4 | 0.00 | 0.01 | 0.01 | 75 | 1014.5 |
| 20260506165016 | 59 | 68 | 4.3 | 8.7 | 0.00 | 0.01 | 0.01 | 76 | 1014.4 |
| 20260506164016 | 58 | 45 | 4.3 | 9.6 | 0.00 | 0.01 | 0.01 | 78 | 1014.5 |
| 20260506163016 | 58 | 45 | 3.5 | 7.0 | 0.00 | 0.01 | 0.01 | 78 | 1014.4 |
| 20260506162016 | 57 | 23 | 3.5 | 7.0 | 0.00 | 0.01 | 0.01 | 78 | 1014.1 |
| 20260506161016 | 57 | 45 | 3.5 | 6.1 | 0.00 | 0.01 | 0.01 | 78 | 1014.1 |
| 20260506160016 | 57 | 23 | 2.6 | 5.2 | 0.00 | 0.01 | 0.01 | 79 | 1014.0 |
| 20260506155016 | 56 | 45 | 3.5 | 5.2 | 0.00 | 0.01 | 0.01 | 79 | 1014.0 |
| 20260506154016 | 57 | 23 | 3.5 | 7.0 | 0.00 | 0.01 | 0.01 | 80 | 1013.9 |
| 20260506153016 | 57 | 23 | 2.6 | 5.2 | 0.00 | 0.01 | 0.01 | 80 | 1013.9 |
| 20260506152016 | 56 | 23 | 2.6 | 3.5 | 0.00 | 0.01 | 0.01 | 82 | 1013.8 |
| 20260506151016 | 55 | 23 | 4.3 | 7.0 | 0.00 | 0.01 | 0.01 | 83 | 1013.7 |
| 20260506150016 | 55 | 45 | 3.5 | 6.1 | 0.00 | 0.01 | 0.01 | 84 | 1013.2 |
| 20260506145017 | 55 | 23 | 4.3 | 7.8 | 0.00 | 0.01 | 0.01 | 85 | 1013.1 |
| 20260506144016 | 54 | 23 | 4.3 | 7.8 | 0.00 | 0.01 | 0.01 | 85 | 1013.7 |
| 20260506143016 | 54 | 23 | 3.5 | 7.0 | 0.00 | 0.01 | 0.01 | 86 | 1013.3 |
| 20260506142016 | 54 | 45 | 3.5 | 5.2 | 0.00 | 0.01 | 0.01 | 87 | 1013.1 |
| 20260506141016 | 53 | 45 | 3.5 | 6.1 | 0.00 | 0.01 | 0.01 | 88 | 1012.8 |
| 20260506140016 | 53 | 68 | 7.0 | 11.3 | 0.00 | 0.01 | 0.01 | 88 | 1012.7 |
| 20260506135016 | 53 | 45 | 6.1 | 11.3 | 0.00 | 0.01 | 0.01 | 87 | 1012.7 |
| 20260506134017 | 53 | 23 | 4.3 | 7.8 | 0.01 | 0.01 | 0.01 | 88 | 1012.9 |
| 20260506133016 | 53 | 23 | 3.5 | 7.0 | 0.01 | 0.01 | 0.01 | 87 | 1012.8 |
| 20260506132016 | 54 | 45 | 7.0 | 15.6 | 0.01 | 0.01 | 0.01 | 87 | 1012.4 |
| 20260506131016 | 54 | 45 | 6.1 | 14.8 | 0.01 | 0.01 | 0.01 | 87 | 1012.2 |
| 20260506130016 | 54 | 68 | 7.8 | 13.9 | 0.01 | 0.01 | 0.01 | 87 | 1012.2 |
| 20260506125016 | 54 | 68 | 11.3 | 15.6 | 0.01 | 0.01 | 0.01 | 85 | 1011.2 |
| 20260506124016 | 55 | 45 | 3.5 | 7.0 | 0.00 | 0.00 | 0.00 | 83 | 1013.4 |
| 20260506123016 | 55 | 68 | 11.3 | 14.8 | 0.00 | 0.00 | 0.00 | 80 | 1012.6 |
| 20260506122016 | 55 | 68 | 6.1 | 11.3 | 0.00 | 0.00 | 0.00 | 80 | 1012.6 |
| 20260506121016 | 56 | 23 | 3.5 | 5.2 | 0.00 | 0.00 | 0.00 | 79 | 1011.5 |
| 20260506120016 | 56 | 68 | 7.0 | 15.6 | 0.00 | 0.00 | 0.00 | 79 | 1010.6 |
| 20260506115016 | 56 | 23 | 2.6 | 7.8 | 0.00 | 0.00 | 0.00 | 78 | 1012.4 |
| 20260506114016 | 56 | 23 | 2.6 | 4.3 | 0.00 | 0.00 | 0.00 | 77 | 1012.5 |
| 20260506113016 | 56 | 45 | 6.1 | 11.3 | 0.00 | 0.00 | 0.00 | 77 | 1011.3 |
| 20260506112016 | 57 | 45 | 5.2 | 10.4 | 0.00 | 0.00 | 0.00 | 77 | 1010.9 |
| 20260506111016 | 57 | 45 | 5.2 | 9.6 | 0.00 | 0.00 | 0.00 | 77 | 1011.2 |
| 20260506110016 | 57 | 23 | 3.5 | 6.1 | 0.00 | 0.00 | 0.00 | 77 | 1011.1 |
| 20260506105017 | 57 | 45 | 3.5 | 6.1 | 0.00 | 0.00 | 0.00 | 77 | 1011.0 |